STARLINK-4470, 53655

Orbit data source: Space-Track

STARLINK-4470, 53655 is a payload satellite owned by SpaceX/Seattle (US) in SSO that was launched on Wed, 31 Aug 2022 UTC via an FALCON 9 launch vehicle from the Air Force Western Test Range (AFWTR). Payload-class satellites include a variety of spacecraft equipped with specific instruments for various scientific and technological missions. These include communications satellites like Starlink; space stations such as the ISS; scientific satellites like the Hubble; Earth observation satellites from companies like Planet Labs, Umbra, and HawkEye 360; GPS; miniature CubeSats for education and research; and military/defense satellites.

Not visible in the next 10 days
Identifier
53655, 2022-105H
Orbit
SSO
Country
Flag of USUS
Related business
Manufacturer
SpaceX/Seattle
Mission
Partially operational Commercial Communications
Bus & Motor
STARLINK, Unknown motor
Mass
300 kg wet, ~290 kg dry
Launch date (UTC)
2022-08-31 (4 years ago)
Launch vehicle
FALCON 9
Launch site
Air Force Western Test Range (AFWTR)
Object type
Payload
Rocket body
Debris
Shape & HBR
Box + 1 Pan, 10.1 m
Radar Cross Section
13.562 m², Large (>1 m²)

Expand to show TLE details & history
Last TLE update: 2 days ago

TLE from 2 days ago
0 STARLINK-4470
1 53655U 22105H   26171.41668980 -.00562145  00000-0 -63765-2 0  9997
2 53655  97.6026  56.1869 0001449  72.7579   2.9631 15.64056611  5917
Epoch: 2026-06-20T10:00Z
TLE epoch observation values (Epoch: 2026-06-20T10:00:01.998Z)
Latitude
73.9309°
Longitude
-29.89053°
Altitude
387.665 km
Speed
7.685 km/s
True Right ascension
01h 54m 59s
True Declination
73° 50' 03"
Sunlit
Object was in daylight at epoch
Visualization orbit readout
Latitude
Unknown
Longitude
Unknown
Altitude
Unknown
Speed
Unknown
Apparent Right ascension
Unknown
Apparent Declination
Unknown
Sunlit
N/A
Visualization observer readout
Local Sidereal Time
21:26:52
Azimuth
Unknown
Elevation
Unknown
Doppler factor
Unknown
Orbital elements
Apogee altitude
373.848 km
Perigee altitude
371.891 km
Semi-major axis
6,751.006 km
Eccentricity
0.00014
Inclination
97.6026°
RAAN
56.1869°
Arg. of periapsis
72.7579°
True anomaly
2.96396°
Mean anomaly
2.9631°
Eccentric anomaly
2.96353°
Mean motion
3.91282 °/min
Orbital period
92.01 mins
BSTAR
-0.0063765
Loading maneuver chart data...
Computing Atmospheric mass density...
Loading historical data...
Loading historical data...
Loading historical data...
Loading historical data...
Loading historical data...
Loading historical data...
Loading historical data...

Documentation

Showing up to 5 results
|